Printer-friendly version

IAU Minor Planet Center

Minor Planet Center

MPEC 2008-Q42 : 2007 VH305

The following Minor Planet Electronic Circular may be linked-to from your own Web pages, but must not otherwise be redistributed electronically.


Read MPEC 2008-Q41 Read MPEC 2008-Q43


M.P.E.C. 2008-Q42                                Issued 2008 Aug. 26, 17:24 UT

     The Minor Planet Electronic Circulars contain information on unusual
         minor planets and routine data on comets.  They are published
   on behalf of Commission 20 of the International Astronomical Union by the
          Minor Planet Center, Smithsonian Astrophysical Observatory,
                          Cambridge, MA 02138, U.S.A.

             Prepared using the Tamkin Foundation Computer Network

                              MPC@CFA.HARVARD.EDU
          URL http://www.cfa.harvard.edu/iau/mpc.html  ISSN 1523-6714

                                  2007 VH305

                           Revision to MPEC 2008-D39

Additional Observations:
     K07VU5H  C2008 08 25.05203 01 41 17.70 +06 25 18.5          21   R EQ042461
     K07VU5H  C2008 08 26.07812 01 41 13.71 +06 24 13.4          21.5 R EQ042461
     K07VU5H  C2008 08 26.09580 01 41 13.65 +06 24 12.2                 EQ042461

Observer details:
461 University of Szeged, Piszkesteto Stn. (Konkoly).  Observer K. Sarneczky.
    0.60-m Schmidt + CCD.

First and last observations above in comparison with prediction:
Residuals in seconds of arc, reference and Delta-T
080825 461 13.4-  3.7-    080826 461 13.2-  4.0-    MPO136006   -1.0 day

Orbital elements:
2007 VH305
Epoch 2008 Nov. 30.0 TT = JDT 2454800.5                 MPC
M 355.45002              (2000.0)            P               Q
n   0.00816972     Peri.  248.61635     +0.57964970     -0.81443801
a  24.4154468      Node   165.86399     +0.78193768     +0.54681774
e   0.6646235      Incl.    6.20565     +0.22930262     +0.19411619
P 120.64           H   11.5           G   0.15           U   3
Residuals in seconds of arc
070904 705  0.1-  0.1+    071008 705  0.0   0.1-    071104 705  0.1+  0.1+
070904 705  0.0   0.0     071012 705  0.1+  0.1+    071104 705  0.0   0.0
070915 705  0.1-  0.1+    071012 705  0.1-  0.0     071108 705  0.1+  0.0
070915 705  0.2+  0.1-    071014 705  0.2+  0.1-    071108 705  0.0   0.2-
070915 G96  0.3+  0.2+    071014 705  0.2+  0.1+    071112 705  0.1+  0.1+
070915 G96  0.2-  0.1-    071019 705  0.0   0.1-    071112 705  0.1+  0.0
070915 G96  0.6-  0.0     071019 705  0.1+  0.0     071117 705  0.2-  0.1-
070915 G96  0.2+  0.1-    071020 705  0.0   0.0     071117 705  0.2-  0.3-
070919 705  0.1-  0.1+    071020 705  0.1-  0.0     071119 705  0.1+  0.2+
070919 705  0.0   0.1+    071103 G96  0.3+  0.3-    071119 705  0.1-  0.1-
070922 705  0.1+  0.1+    071103 G96  0.1+  0.1+    080825 461  0.1-  0.2+
070922 705  0.1-  0.1+    071103 G96  0.2-  0.3-    080826 461  0.1-  0.0
071008 705  0.0   0.1-    071103 G96  0.4-  0.1+    080826 461  0.2+  0.1-

Ephemeris:
2007 VH305               a,e,i = 24.42, 0.66, 6                  q = 8.1884
Date    TT    R. A. (2000) Decl.     Delta      r     Elong.  Phase     V
2008 08 22    01 41.45   +06 28.3    8.193    8.788   123.2     5.5    21.2
2008 09 01    01 40.71   +06 17.3    8.050    8.771   133.1     4.8    21.2
2008 09 11    01 39.36   +06 03.1    7.928    8.754   143.1     4.0    21.1
2008 09 21    01 37.49   +05 46.5    7.828    8.737   153.3     3.0    21.0
2008 10 01    01 35.19   +05 28.1    7.756    8.720   163.5     1.9    20.9
2008 10 11    01 32.61   +05 08.9    7.712    8.704   173.2     0.8    20.8
2008 10 21    01 29.91   +04 50.0    7.698    8.688   173.2     0.8    20.8
2008 10 31    01 27.27   +04 32.4    7.715    8.672   163.5     1.9    20.9
2008 11 10    01 24.85   +04 17.1    7.762    8.656   153.1     3.0    20.9
2008 11 20    01 22.82   +04 05.1    7.836    8.641   142.5     4.0    21.0
2008 11 30    01 21.31   +03 57.0    7.933    8.626   132.1     4.9    21.1
2008 12 10    01 20.41   +03 53.3    8.051    8.611   121.8     5.6    21.2
2008 12 20    01 20.20   +03 54.2    8.185    8.596   111.6     6.1    21.2
2008 12 30    01 20.71   +03 59.8    8.330    8.581   101.6     6.4    21.3
2009 01 09    01 21.95   +04 09.9    8.480    8.567    91.8     6.6    21.3
2009 01 19    01 23.90   +04 24.2    8.632    8.553    82.1     6.5    21.3
2009 01 29    01 26.52   +04 42.3    8.780    8.539    72.7     6.3    21.4
2009 02 08    01 29.76   +05 03.6    8.920    8.526    63.5     5.9    21.4
2009 02 18    01 33.56   +05 27.7    9.049    8.512    54.4     5.4    21.4
2009 02 28    01 37.84   +05 54.0    9.163    8.499    45.6     4.8    21.4
2009 03 10    01 42.54   +06 21.9    9.260    8.486    36.8     4.0    21.3

Brian G. Marsden             (C) Copyright 2008 MPC           M.P.E.C. 2008-Q42

Read MPEC 2008-Q41 Read MPEC 2008-Q43


Our Web policy. Index to the CBAT/MPC/ICQ pages.


Valid HTML 4.01!